| time (UTC) | temp F | wind direction | speed MPH | gust MPH | rain 1hr in | rain 24hr in | rain mn in | humidity % | barometer mb |
| 20260505124402 | 55 | 329 | 2.0 | 6.0 | 0.00 | 0.06 | 0.01 | 91 | 1006.2 |
| 20260505123904 | 55 | 28 | 2.0 | 7.0 | 0.00 | 0.06 | 0.01 | 92 | 1006.2 |
| 20260505123403 | 55 | 32 | 2.0 | 7.0 | 0.00 | 0.06 | 0.01 | 92 | 1006.1 |
| 20260505122830 | 55 | 0 | 2.0 | 8.0 | 0.00 | 0.06 | 0.01 | 92 | 1006.1 |
| 20260505122330 | 55 | 48 | 1.0 | 8.0 | 0.00 | 0.06 | 0.01 | 93 | 1006.2 |
| 20260505121827 | 54 | 356 | 3.0 | 9.0 | 0.00 | 0.06 | 0.01 | 93 | 1006.2 |
| 20260505121326 | 54 | 350 | 3.0 | 9.0 | 0.00 | 0.06 | 0.01 | 93 | 1006.2 |
| 20260505120805 | 54 | 359 | 3.0 | 7.0 | 0.00 | 0.06 | 0.01 | 93 | 1006.2 |
| 20260505120304 | 54 | 0 | 3.0 | 8.0 | 0.00 | 0.06 | 0.01 | 93 | 1006.3 |
| 20260505115732 | 54 | 1 | 3.0 | 8.0 | 0.00 | 0.06 | 0.01 | 93 | 1006.2 |
| 20260505115232 | 54 | 4 | 3.0 | 7.0 | 0.00 | 0.06 | 0.01 | 93 | 1006.3 |
| 20260505114730 | 54 | 77 | 3.0 | 7.0 | 0.00 | 0.06 | 0.01 | 93 | 1006.3 |
| 20260505114502 | 54 | 359 | 2.0 | 6.0 | 0.00 | 0.06 | 0.01 | 93 | 1006.3 |
| 20260505113926 | 54 | 90 | 2.0 | 7.0 | 0.00 | 0.06 | 0.01 | 94 | 1006.4 |
| 20260505113131 | 54 | 324 | 3.0 | 9.0 | 0.00 | 0.06 | 0.01 | 94 | 1006.4 |
| 20260505112852 | 54 | 0 | 3.0 | 9.0 | 0.00 | 0.06 | 0.01 | 94 | 1006.3 |
| 20260505112329 | 54 | 6 | 3.0 | 7.0 | 0.00 | 0.06 | 0.01 | 94 | 1006.3 |
| 20260505111532 | 54 | 43 | 3.0 | 8.0 | 0.00 | 0.06 | 0.01 | 94 | 1006.3 |
| 20260505111031 | 54 | 85 | 3.0 | 8.0 | 0.00 | 0.06 | 0.01 | 94 | 1006.3 |
| 20260505110532 | 54 | 37 | 2.0 | 6.0 | 0.00 | 0.06 | 0.01 | 94 | 1006.4 |
| 20260505101902 | 54 | 76 | 3.0 | 8.0 | 0.00 | 0.06 | 0.01 | 96 | 1006.6 |
| 20260505101333 | 54 | 359 | 3.0 | 8.0 | 0.00 | 0.06 | 0.01 | 96 | 1006.6 |
| 20260505100831 | 54 | 1 | 3.0 | 8.0 | 0.00 | 0.06 | 0.01 | 96 | 1006.6 |
| 20260505100313 | 54 | 335 | 3.0 | 10.0 | 0.00 | 0.06 | 0.01 | 96 | 1006.6 |
| 20260505095803 | 54 | 70 | 3.0 | 10.0 | 0.00 | 0.06 | 0.01 | 96 | 1006.6 |
| 20260505095753 | 54 | 91 | 3.0 | 9.0 | 0.00 | 0.06 | 0.01 | 96 | 1006.6 |
| 20260505094955 | 54 | 345 | 3.0 | 9.0 | 0.00 | 0.06 | 0.01 | 95 | 1006.6 |
| 20260505094231 | 54 | 316 | 2.0 | 7.0 | 0.00 | 0.06 | 0.01 | 96 | 1006.6 |
| 20260505093703 | 54 | 6 | 2.0 | 7.0 | 0.00 | 0.06 | 0.01 | 96 | 1006.6 |
| 20260505093202 | 54 | 25 | 2.0 | 7.0 | 0.00 | 0.06 | 0.01 | 96 | 1006.6 |
| 20260505092702 | 55 | 1 | 2.0 | 7.0 | 0.00 | 0.06 | 0.01 | 96 | 1006.6 |
| 20260505092202 | 55 | 352 | 2.0 | 8.0 | 0.00 | 0.06 | 0.01 | 96 | 1006.6 |
| 20260505091646 | 55 | 62 | 3.0 | 8.0 | 0.00 | 0.06 | 0.01 | 95 | 1006.6 |
| 20260505091132 | 55 | 359 | 2.0 | 7.0 | 0.00 | 0.06 | 0.01 | 95 | 1006.6 |
| 20260505090631 | 55 | 14 | 2.0 | 7.0 | 0.00 | 0.06 | 0.01 | 95 | 1006.6 |
| 20260505090326 | 55 | 42 | 3.0 | 6.0 | 0.00 | 0.06 | 0.01 | 95 | 1006.5 |
| 20260505085602 | 56 | 136 | 2.0 | 7.0 | 0.00 | 0.06 | 0.01 | 95 | 1006.6 |
| 20260505085103 | 56 | 51 | 2.0 | 7.0 | 0.00 | 0.06 | 0.01 | 95 | 1006.6 |
| 20260505084532 | 56 | 238 | 2.0 | 7.0 | 0.00 | 0.06 | 0.01 | 95 | 1006.5 |
| 20260505084242 | 56 | 4 | 3.0 | 7.0 | 0.00 | 0.06 | 0.01 | 94 | 1006.5 |
| 20260505083732 | 57 | 10 | 3.0 | 7.0 | 0.00 | 0.06 | 0.01 | 94 | 1006.5 |
| 20260505083002 | 57 | 1 | 3.0 | 7.0 | 0.00 | 0.06 | 0.01 | 94 | 1006.5 |
| 20260505082433 | 58 | 304 | 1.0 | 5.0 | 0.00 | 0.06 | 0.01 | 94 | 1006.4 |
| 20260505081931 | 58 | 127 | 1.0 | 3.0 | 0.00 | 0.06 | 0.01 | 94 | 1006.4 |
| 20260505081701 | 57 | 130 | 1.0 | 4.0 | 0.00 | 0.06 | 0.01 | 94 | 1006.4 |
| 20260505080931 | 57 | 156 | 1.0 | 4.0 | 0.00 | 0.06 | 0.01 | 94 | 1006.4 |
| 20260505080432 | 57 | 129 | 1.0 | 3.0 | 0.00 | 0.06 | 0.01 | 95 | 1006.5 |
| 20260505075904 | 57 | 150 | 1.0 | 3.0 | 0.00 | 0.06 | 0.01 | 96 | 1006.4 |
| 20260505075402 | 57 | 83 | 1.0 | 3.0 | 0.00 | 0.06 | 0.01 | 96 | 1006.4 |
| 20260505074903 | 57 | 110 | 1.0 | 2.0 | 0.00 | 0.06 | 0.01 | 97 | 1006.4 |
| 20260505074332 | 57 | 41 | 0.0 | 3.0 | 0.00 | 0.06 | 0.01 | 97 | 1006.4 |
| 20260505074056 | 57 | 81 | 0.0 | 2.0 | 0.00 | 0.06 | 0.01 | 97 | 1006.4 |
| 20260505073332 | 57 | 81 | 0.0 | 2.0 | 0.00 | 0.06 | 0.01 | 97 | 1006.5 |
| 20260505072832 | 57 | 81 | 0.0 | 2.0 | 0.00 | 0.06 | 0.01 | 98 | 1006.5 |
| 20260505072330 | 57 | 81 | 0.0 | 2.0 | 0.00 | 0.06 | 0.01 | 98 | 1006.4 |
| 20260505072048 | 57 | 81 | 0.0 | 2.0 | 0.00 | 0.06 | 0.01 | 98 | 1006.5 |
| 20260505071329 | 57 | 81 | 0.0 | 2.0 | 0.00 | 0.06 | 0.01 | 98 | 1006.5 |
| 20260505070826 | 56 | 81 | 1.0 | 2.0 | 0.00 | 0.06 | 0.01 | 98 | 1006.5 |
| 20260505070538 | 56 | 106 | 0.0 | 2.0 | 0.00 | 0.06 | 0.01 | 98 | 1006.5 |
| 20260505065814 | 56 | 90 | 0.0 | 2.0 | 0.00 | 0.06 | 0.01 | 98 | 1006.6 |
| 20260505065313 | 56 | 90 | 0.0 | 3.0 | 0.00 | 0.06 | 0.01 | 98 | 1006.6 |
| 20260505065300 | 56 | 328 | 0.0 | 3.0 | 0.00 | 0.06 | 0.01 | 98 | 1006.7 |
| 20260505064303 | 56 | 31 | 0.0 | 2.0 | 0.00 | 0.06 | 0.01 | 98 | 1006.7 |
| 20260505063731 | 56 | 31 | 0.0 | 2.0 | 0.00 | 0.06 | 0.01 | 98 | 1006.7 |
| 20260505063230 | 56 | 31 | 0.0 | 2.0 | 0.00 | 0.06 | 0.01 | 98 | 1006.7 |
| 20260505062956 | 56 | 31 | 1.0 | 2.0 | 0.00 | 0.06 | 0.01 | 98 | 1006.7 |
| 20260505062232 | 56 | 142 | 0.0 | 1.0 | 0.01 | 0.06 | 0.01 | 98 | 1006.7 |
| 20260505061730 | 56 | 185 | 0.0 | 1.0 | 0.01 | 0.06 | 0.01 | 98 | 1006.7 |
| 20260505061448 | 56 | 185 | 0.0 | 1.0 | 0.01 | 0.06 | 0.01 | 98 | 1006.8 |
| 20260505060954 | 56 | 185 | 0.0 | 1.0 | 0.01 | 0.06 | 0.01 | 98 | 1006.9 |
| 20260505060225 | 56 | 185 | 0.0 | 0.0 | 0.01 | 0.06 | 0.01 | 98 | 1006.9 |
| 20260505055722 | 56 | 185 | 0.0 | 0.0 | 0.01 | 0.06 | 0.01 | 98 | 1006.9 |
| 20260505055204 | 56 | 185 | 0.0 | 1.0 | 0.01 | 0.06 | 0.01 | 98 | 1006.9 |
| 20260505054910 | 56 | 185 | 0.0 | 1.0 | 0.01 | 0.06 | 0.01 | 98 | 1006.8 |
| 20260505054131 | 55 | 185 | 0.0 | 0.0 | 0.01 | 0.06 | 0.01 | 98 | 1006.8 |
| 20260505053632 | 55 | 185 | 0.0 | 0.0 | 0.01 | 0.06 | 0.01 | 98 | 1006.7 |
| 20260505053133 | 55 | 185 | 0.0 | 0.0 | 0.01 | 0.06 | 0.01 | 98 | 1006.7 |
| 20260505052630 | 55 | 185 | 0.0 | 0.0 | 0.01 | 0.06 | 0.01 | 98 | 1006.8 |
| 20260505052131 | 55 | 185 | 0.0 | 0.0 | 0.00 | 0.06 | 0.00 | 98 | 1006.8 |
| 20260505051827 | 55 | 185 | 0.0 | 0.0 | 0.00 | 0.06 | 0.00 | 98 | 1006.7 |
| 20260505051104 | 55 | 185 | 0.0 | 0.0 | 0.00 | 0.06 | 0.00 | 98 | 1006.7 |
| 20260505050532 | 55 | 185 | 0.0 | 0.0 | 0.00 | 0.06 | 0.00 | 98 | 1006.7 |
| 20260505050254 | 55 | 185 | 0.0 | 0.0 | 0.00 | 0.06 | 0.00 | 98 | 1006.7 |
| 20260505041429 | 54 | 185 | 0.0 | 0.0 | 0.00 | 0.06 | 0.00 | 98 | 1006.8 |
| 20260505040930 | 55 | 185 | 0.0 | 0.0 | 0.00 | 0.06 | 0.00 | 98 | 1006.8 |
| 20260505040428 | 54 | 185 | 0.0 | 0.0 | 0.00 | 0.06 | 0.00 | 98 | 1006.8 |
| 20260505035930 | 54 | 185 | 0.0 | 0.0 | 0.00 | 0.06 | 0.00 | 98 | 1006.8 |
| 20260505035430 | 54 | 185 | 0.0 | 0.0 | 0.00 | 0.06 | 0.00 | 98 | 1006.8 |
| 20260505034930 | 54 | 185 | 0.0 | 0.0 | 0.00 | 0.06 | 0.00 | 98 | 1006.8 |
| 20260505034430 | 54 | 185 | 0.0 | 0.0 | 0.00 | 0.06 | 0.00 | 98 | 1006.8 |
| 20260505033931 | 54 | 185 | 0.0 | 0.0 | 0.00 | 0.06 | 0.00 | 98 | 1006.8 |
| 20260505033430 | 54 | 185 | 0.0 | 0.0 | 0.00 | 0.06 | 0.00 | 98 | 1006.9 |
| 20260505032931 | 54 | 185 | 0.0 | 0.0 | 0.00 | 0.06 | 0.00 | 98 | 1006.8 |
| 20260505032430 | 54 | 185 | 0.0 | 0.0 | 0.00 | 0.06 | 0.00 | 98 | 1006.8 |
| 20260505031929 | 54 | 185 | 0.0 | 0.0 | 0.00 | 0.06 | 0.00 | 98 | 1006.9 |
| 20260505031431 | 54 | 185 | 0.0 | 0.0 | 0.00 | 0.06 | 0.00 | 98 | 1006.9 |
| 20260505030929 | 55 | 185 | 0.0 | 0.0 | 0.00 | 0.06 | 0.00 | 98 | 1007.0 |
| 20260505030430 | 55 | 185 | 0.0 | 0.0 | 0.00 | 0.06 | 0.00 | 98 | 1007.1 |
| 20260505025902 | 55 | 185 | 0.0 | 0.0 | 0.00 | 0.06 | 0.00 | 97 | 1007.0 |
| 20260505025400 | 55 | 185 | 0.0 | 0.0 | 0.00 | 0.06 | 0.00 | 97 | 1007.0 |
| 20260505024831 | 55 | 185 | 0.0 | 0.0 | 0.00 | 0.06 | 0.00 | 97 | 1007.1 |
| 20260505024331 | 55 | 185 | 0.0 | 0.0 | 0.00 | 0.06 | 0.00 | 97 | 1007.2 |
| 20260505024056 | 55 | 185 | 0.0 | 0.0 | 0.00 | 0.06 | 0.00 | 98 | 1007.2 |
| 20260505023329 | 55 | 185 | 0.0 | 0.0 | 0.00 | 0.06 | 0.00 | 98 | 1007.2 |
| 20260505022829 | 55 | 185 | 0.0 | 0.0 | 0.00 | 0.06 | 0.00 | 98 | 1007.2 |
| 20260505022331 | 55 | 185 | 0.0 | 0.0 | 0.00 | 0.06 | 0.00 | 98 | 1007.3 |
| 20260505021831 | 55 | 185 | 0.0 | 0.0 | 0.00 | 0.06 | 0.00 | 98 | 1007.3 |
| 20260505021326 | 55 | 185 | 0.0 | 0.0 | 0.00 | 0.06 | 0.00 | 98 | 1007.4 |
| 20260505020801 | 55 | 185 | 0.0 | 0.0 | 0.00 | 0.06 | 0.00 | 98 | 1007.4 |
| 20260505020302 | 55 | 185 | 0.0 | 0.0 | 0.00 | 0.06 | 0.00 | 98 | 1007.3 |
| 20260505015729 | 55 | 185 | 0.0 | 0.0 | 0.00 | 0.06 | 0.00 | 98 | 1007.4 |
| 20260505015230 | 55 | 185 | 0.0 | 0.0 | 0.00 | 0.06 | 0.00 | 97 | 1007.4 |
| 20260505014928 | 55 | 185 | 0.0 | 0.0 | 0.00 | 0.06 | 0.00 | 97 | 1007.4 |
| 20260505014146 | 55 | 185 | 0.0 | 0.0 | 0.00 | 0.06 | 0.00 | 97 | 1007.4 |
| 20260505013629 | 55 | 185 | 0.0 | 0.0 | 0.00 | 0.06 | 0.00 | 97 | 1007.4 |
| 20260505013129 | 55 | 185 | 0.0 | 0.0 | 0.00 | 0.06 | 0.00 | 97 | 1007.4 |
| 20260505012602 | 55 | 185 | 0.0 | 0.0 | 0.00 | 0.06 | 0.00 | 98 | 1007.5 |
| 20260505012029 | 55 | 185 | 0.0 | 0.0 | 0.00 | 0.06 | 0.00 | 98 | 1007.5 |
| 20260505011531 | 55 | 185 | 0.0 | 0.0 | 0.00 | 0.06 | 0.00 | 98 | 1007.5 |
| 20260505011031 | 56 | 185 | 0.0 | 0.0 | 0.00 | 0.06 | 0.00 | 98 | 1007.5 |
| 20260505010530 | 55 | 185 | 0.0 | 0.0 | 0.00 | 0.06 | 0.00 | 98 | 1007.5 |
| 20260505010228 | 55 | 185 | 0.0 | 0.0 | 0.00 | 0.06 | 0.00 | 98 | 1007.5 |
| 20260505005431 | 56 | 185 | 0.0 | 0.0 | 0.00 | 0.06 | 0.00 | 98 | 1007.6 |
| 20260505004921 | 55 | 185 | 0.0 | 0.0 | 0.00 | 0.06 | 0.00 | 98 | 1007.6 |
| 20260505004417 | 56 | 185 | 0.0 | 0.0 | 0.00 | 0.06 | 0.00 | 98 | 1007.7 |
| 20260505004113 | 56 | 185 | 0.0 | 0.0 | 0.00 | 0.06 | 0.00 | 97 | 1007.7 |
| 20260505004103 | 56 | 185 | 0.0 | 0.0 | 0.00 | 0.06 | 0.00 | 98 | 1007.8 |
| 20260505002901 | 56 | 185 | 0.0 | 0.0 | 0.00 | 0.06 | 0.00 | 97 | 1007.8 |
| 20260505002403 | 56 | 185 | 0.0 | 0.0 | 0.00 | 0.06 | 0.00 | 97 | 1007.9 |
| 20260505001831 | 56 | 185 | 0.0 | 0.0 | 0.00 | 0.06 | 0.00 | 97 | 1007.9 |
| 20260505001327 | 56 | 185 | 0.0 | 0.0 | 0.00 | 0.06 | 0.00 | 97 | 1008.0 |
| 20260505001048 | 56 | 185 | 0.0 | 0.0 | 0.00 | 0.06 | 0.00 | 97 | 1008.1 |
| 20260505000316 | 56 | 185 | 0.0 | 0.0 | 0.00 | 0.06 | 0.00 | 97 | 1008.1 |
| 20260504235802 | 56 | 185 | 0.0 | 0.0 | 0.00 | 0.06 | 0.00 | 97 | 1008.1 |
| 20260504235230 | 56 | 185 | 0.0 | 0.0 | 0.00 | 0.06 | 0.00 | 97 | 1008.1 |
| 20260504234729 | 56 | 185 | 0.0 | 0.0 | 0.00 | 0.06 | 0.00 | 97 | 1008.1 |
| 20260504234229 | 56 | 185 | 0.0 | 0.0 | 0.00 | 0.06 | 0.00 | 97 | 1008.2 |
| 20260504233730 | 56 | 185 | 0.0 | 0.0 | 0.00 | 0.06 | 0.00 | 97 | 1008.2 |
| 20260504233229 | 56 | 185 | 0.0 | 0.0 | 0.00 | 0.06 | 0.00 | 97 | 1008.2 |
| 20260504232954 | 56 | 185 | 0.0 | 0.0 | 0.00 | 0.06 | 0.00 | 97 | 1008.3 |
| 20260504232232 | 56 | 185 | 0.0 | 0.0 | 0.00 | 0.06 | 0.00 | 97 | 1008.3 |
| 20260504231708 | 56 | 185 | 0.0 | 0.0 | 0.00 | 0.06 | 0.00 | 97 | 1008.2 |
| 20260504231207 | 56 | 185 | 0.0 | 0.0 | 0.00 | 0.06 | 0.00 | 97 | 1008.3 |
| 20260504230635 | 56 | 185 | 0.0 | 0.0 | 0.00 | 0.06 | 0.00 | 97 | 1008.4 |
| 20260504230135 | 56 | 185 | 0.0 | 0.0 | 0.00 | 0.06 | 0.00 | 97 | 1008.4 |
| 20260504225607 | 56 | 185 | 0.0 | 0.0 | 0.00 | 0.06 | 0.00 | 97 | 1008.4 |
| 20260504225032 | 56 | 185 | 0.0 | 0.0 | 0.00 | 0.06 | 0.00 | 97 | 1008.5 |
| 20260504224536 | 56 | 185 | 0.0 | 0.0 | 0.00 | 0.06 | 0.00 | 97 | 1008.5 |
| 20260504224034 | 56 | 185 | 0.0 | 0.0 | 0.00 | 0.06 | 0.00 | 97 | 1008.6 |
| 20260504223531 | 56 | 185 | 0.0 | 0.0 | 0.00 | 0.06 | 0.00 | 97 | 1008.6 |
| 20260504223252 | 56 | 185 | 0.0 | 0.0 | 0.00 | 0.06 | 0.00 | 97 | 1008.7 |
| 20260504222745 | 56 | 185 | 0.0 | 0.0 | 0.00 | 0.06 | 0.00 | 97 | 1008.7 |
| 20260504222238 | 56 | 185 | 0.0 | 0.0 | 0.00 | 0.06 | 0.00 | 97 | 1008.8 |
| 20260504221432 | 56 | 185 | 0.0 | 0.0 | 0.00 | 0.06 | 0.00 | 97 | 1008.8 |
| 20260504220932 | 56 | 185 | 0.0 | 0.0 | 0.00 | 0.06 | 0.00 | 97 | 1008.9 |
| 20260504220422 | 56 | 185 | 0.0 | 0.0 | 0.00 | 0.06 | 0.00 | 97 | 1008.9 |
| 20260504215921 | 56 | 185 | 0.0 | 0.0 | 0.00 | 0.06 | 0.06 | 97 | 1008.9 |
| 20260504215404 | 56 | 185 | 0.0 | 0.0 | 0.00 | 0.06 | 0.06 | 97 | 1008.9 |
| 20260504214903 | 56 | 185 | 0.0 | 0.0 | 0.00 | 0.06 | 0.06 | 97 | 1009.0 |
| 20260504214622 | 56 | 185 | 0.0 | 0.0 | 0.00 | 0.06 | 0.06 | 97 | 1009.0 |
| 20260504213902 | 56 | 185 | 0.0 | 0.0 | 0.00 | 0.06 | 0.06 | 97 | 1009.0 |
| 20260504213405 | 56 | 185 | 0.0 | 0.0 | 0.00 | 0.06 | 0.06 | 97 | 1009.0 |
| 20260504212902 | 56 | 185 | 0.0 | 0.0 | 0.00 | 0.06 | 0.06 | 97 | 1009.1 |
| 20260504212403 | 56 | 185 | 0.0 | 0.0 | 0.00 | 0.06 | 0.06 | 97 | 1009.1 |
| 20260504211833 | 57 | 185 | 0.0 | 0.0 | 0.00 | 0.06 | 0.06 | 97 | 1009.1 |
| 20260504211331 | 57 | 185 | 0.0 | 0.0 | 0.00 | 0.06 | 0.06 | 97 | 1009.2 |
| 20260504210831 | 57 | 185 | 0.0 | 0.0 | 0.00 | 0.06 | 0.06 | 97 | 1009.2 |
| 20260504210328 | 57 | 185 | 0.0 | 0.0 | 0.00 | 0.06 | 0.06 | 97 | 1009.2 |
| 20260504205825 | 57 | 185 | 0.0 | 0.0 | 0.00 | 0.06 | 0.06 | 97 | 1009.2 |
| 20260504205323 | 57 | 185 | 0.0 | 0.0 | 0.00 | 0.06 | 0.06 | 97 | 1009.2 |
| 20260504204804 | 57 | 185 | 0.0 | 0.0 | 0.00 | 0.06 | 0.06 | 97 | 1009.3 |
| 20260504204302 | 57 | 185 | 0.0 | 0.0 | 0.00 | 0.06 | 0.06 | 97 | 1009.3 |
| 20260504203802 | 57 | 185 | 0.0 | 0.0 | 0.00 | 0.06 | 0.06 | 97 | 1009.3 |
| 20260504203745 | 57 | 185 | 0.0 | 0.0 | 0.00 | 0.06 | 0.06 | 97 | 1009.3 |
| 20260504202804 | 57 | 185 | 0.0 | 0.0 | 0.00 | 0.06 | 0.06 | 97 | 1009.3 |
| 20260504202232 | 57 | 185 | 0.0 | 0.0 | 0.00 | 0.06 | 0.06 | 96 | 1009.4 |
| 20260504201950 | 57 | 185 | 0.0 | 0.0 | 0.00 | 0.06 | 0.06 | 96 | 1009.4 |
| 20260504201203 | 57 | 185 | 0.0 | 0.0 | 0.00 | 0.06 | 0.06 | 96 | 1009.4 |
| 20260504200923 | 58 | 185 | 0.0 | 0.0 | 0.00 | 0.06 | 0.06 | 96 | 1009.4 |
| 20260504200144 | 58 | 185 | 0.0 | 0.0 | 0.00 | 0.06 | 0.06 | 96 | 1009.3 |
| 20260504195643 | 58 | 185 | 0.0 | 0.0 | 0.00 | 0.06 | 0.06 | 96 | 1009.3 |
| 20260504195136 | 58 | 185 | 0.0 | 0.0 | 0.00 | 0.06 | 0.06 | 96 | 1009.3 |
| 20260504195120 | 58 | 185 | 0.0 | 0.0 | 0.00 | 0.06 | 0.06 | 96 | 1009.3 |
| 20260504194130 | 58 | 185 | 0.0 | 0.0 | 0.00 | 0.06 | 0.06 | 96 | 1009.2 |
| 20260504193631 | 58 | 185 | 0.0 | 0.0 | 0.00 | 0.06 | 0.06 | 96 | 1009.3 |
| 20260504193132 | 58 | 185 | 0.0 | 0.0 | 0.00 | 0.06 | 0.06 | 96 | 1009.3 |
| 20260504192829 | 58 | 185 | 0.0 | 0.0 | 0.00 | 0.06 | 0.06 | 96 | 1009.3 |
| 20260504192102 | 58 | 185 | 0.0 | 0.0 | 0.00 | 0.06 | 0.06 | 96 | 1009.2 |
| 20260504191609 | 58 | 185 | 0.0 | 0.0 | 0.00 | 0.06 | 0.06 | 96 | 1009.2 |
| 20260504191102 | 58 | 185 | 0.0 | 0.0 | 0.00 | 0.06 | 0.06 | 96 | 1009.1 |
| 20260504190537 | 58 | 185 | 0.0 | 0.0 | 0.00 | 0.06 | 0.06 | 96 | 1009.1 |
| 20260504190032 | 58 | 185 | 0.0 | 0.0 | 0.00 | 0.06 | 0.06 | 96 | 1009.0 |
| 20260504185531 | 58 | 185 | 0.0 | 0.0 | 0.00 | 0.06 | 0.06 | 96 | 1009.0 |
| 20260504185021 | 58 | 185 | 0.0 | 0.0 | 0.00 | 0.06 | 0.06 | 96 | 1009.0 |
| 20260504184519 | 58 | 185 | 0.0 | 0.0 | 0.00 | 0.06 | 0.06 | 96 | 1009.0 |
| 20260504184015 | 59 | 185 | 0.0 | 0.0 | 0.00 | 0.06 | 0.06 | 96 | 1008.9 |
| 20260504183502 | 59 | 185 | 0.0 | 0.0 | 0.00 | 0.06 | 0.06 | 96 | 1009.0 |
| 20260504183231 | 59 | 185 | 0.0 | 1.0 | 0.00 | 0.06 | 0.06 | 96 | 1009.0 |
| 20260504182431 | 59 | 185 | 0.0 | 1.0 | 0.00 | 0.06 | 0.06 | 96 | 1008.9 |
| 20260504181925 | 59 | 185 | 0.0 | 0.0 | 0.00 | 0.06 | 0.06 | 96 | 1008.9 |
| 20260504181405 | 59 | 185 | 0.0 | 0.0 | 0.00 | 0.06 | 0.06 | 96 | 1008.9 |
| 20260504180832 | 59 | 185 | 0.0 | 0.0 | 0.00 | 0.06 | 0.06 | 96 | 1008.9 |
| 20260504180327 | 59 | 185 | 0.0 | 0.0 | 0.01 | 0.06 | 0.06 | 95 | 1008.9 |
| 20260504175804 | 59 | 185 | 0.0 | 0.0 | 0.01 | 0.06 | 0.06 | 96 | 1008.9 |
| 20260504175304 | 59 | 185 | 0.0 | 0.0 | 0.01 | 0.06 | 0.06 | 96 | 1009.0 |
| 20260504174803 | 59 | 185 | 0.0 | 0.0 | 0.01 | 0.06 | 0.06 | 95 | 1009.0 |
| 20260504174231 | 59 | 185 | 0.0 | 0.0 | 0.01 | 0.06 | 0.06 | 95 | 1009.0 |
| 20260504173730 | 59 | 185 | 0.0 | 0.0 | 0.01 | 0.06 | 0.06 | 95 | 1009.1 |
| 20260504173232 | 59 | 185 | 0.0 | 0.0 | 0.01 | 0.06 | 0.06 | 94 | 1009.2 |
| 20260504172734 | 59 | 185 | 0.0 | 0.0 | 0.01 | 0.06 | 0.06 | 94 | 1009.2 |
| 20260504172452 | 59 | 185 | 0.0 | 0.0 | 0.01 | 0.06 | 0.06 | 94 | 1009.2 |
| 20260504171731 | 59 | 185 | 0.0 | 0.0 | 0.01 | 0.06 | 0.06 | 94 | 1009.2 |
| 20260504171230 | 59 | 185 | 0.0 | 0.0 | 0.01 | 0.06 | 0.06 | 94 | 1009.2 |
| 20260504170730 | 59 | 185 | 0.0 | 1.0 | 0.01 | 0.06 | 0.06 | 94 | 1009.2 |
| 20260504170449 | 59 | 165 | 0.0 | 1.0 | 0.01 | 0.06 | 0.06 | 93 | 1009.2 |
| 20260504150700 | 64 | 207 | 0.0 | 1.0 | 0.00 | 0.01 | 0.01 | 85 | 1009.4 |
| 20260504141238 | 65 | 269 | 2.0 | 5.0 | 0.00 | 0.02 | 0.01 | 77 | 1009.7 |
| 20260504140737 | 66 | 307 | 1.0 | 5.0 | 0.00 | 0.02 | 0.01 | 77 | 1009.7 |
| 20260504140228 | 66 | 195 | 0.0 | 1.0 | 0.00 | 0.02 | 0.01 | 79 | 1009.8 |